Volver al catálogo

FENGYUN 1C DEB *

ActivoSSO
NORAD 48518·DEBRIS·🇨🇳 China

Lanzado May 10, 1999 desde Taiyuan Satellite Launch Center

Loading…

Próximos Pases (próximas 24 horas)

TLE

EnvejeciendoSource: Space-Track

Época: Sep 8, 2026, 09:28 UTC

1 48518U 99025FCG 26251.39450636  .00002678  00000-0  13900-2 0  9991
2 48518  99.2628 225.8566 0130929  66.0363 295.4454 14.11323338639714

Sigue FENGYUN 1C DEB * en tiempo real con AllMySat

Download on the App Store